Dillon, MT

9:41 AM MDT on September 22, 2017 (GMT -0600)
Dillon

Weather History for KDLN - October, 2011

Change the Weather History Date:

Monday, October 3, 2011

  Actual Average Record
Temperature  
Mean Temperature 61 °F 48 °F  
Max Temperature 80 °F 62 °F 86 °F (2010)
Min Temperature 41 °F 34 °F 18 °F (1999)
Degree Days  
Heating Degree Days 4    
Month to date heating degree days 7  
Since 1 July heating degree days 233  
Cooling Degree Days 0    
Month to date cooling degree days 1  
Year to date cooling degree days 140  
Growing Degree Days 12 (Base 50)    
Moisture  
Dew Point 33 °F    
Average Humidity 39    
Maximum Humidity 58    
Minimum Humidity 19    
Precipitation  
Precipitation 0.00 in 0.03 in 0.53 in (2016)
Month to date precipitation 0.00 0.09  
Year to date precipitation 7.50 9.26  
Snow  
Snow 0.00 in - - ()
Snow Depth 0.00 in    
Sea Level Pressure  
Sea Level Pressure 29.88 in    
Wind  
Wind Speed 11 mph (South)    
Max Wind Speed 31 mph    
Max Gust Speed 44 mph    
Visibility 9 miles    
Events      
T = Trace of Precipitation, MM = Missing Value Source: NWS Daily Summary

Daily Weather History Graph

Daily Weather History Graph

Search for Another Location

Airport or City:

Trip Planner

Search our weather history database for the weather conditions in past years. The results will help you decide how hot, cold, wet, or windy it might be!

Date:

Astronomy

Oct. 03, 2011 Rise Set
Actual Time 7:30 AM MDT 7:07 PM MDT
Civil Twilight 7:01 AM MDT 7:36 PM MDT
Nautical Twilight 6:26 AM MDT 8:10 PM MDT
Astronomical Twilight 5:52 AM MDT 8:45 PM MDT
Moon 2:46 PM MDT (10/3) No Moon Set
Length of Visible Light 12h 35m
Length of Day
11h 36m
Waxing Crescent, 46% of the Moon is Illuminated
Oct 3
Waxing Crescent
Oct 3
First Quarter
Oct 11
Full
Oct 19
Last Quarter
Oct 26
New

Hourly Weather History & Observations

Time (MDT) Temp. Windchill Dew Point Humidity Pressure Visibility Wind Dir Wind Speed Gust Speed Precip Events Conditions
12:53 AM 52.0 °F - 28.9 °F 41% 29.95 in 10.0 mi SE 5.8 mph - N/A   Clear
2:53 AM 50.0 °F - 30.9 °F 48% 29.96 in 10.0 mi Calm Calm - N/A   Clear
3:53 AM 45.0 °F 41.2 °F 30.9 °F 58% 29.95 in 10.0 mi SE 6.9 mph - N/A   Clear
4:53 AM 48.0 °F - 30.9 °F 52% 29.94 in 10.0 mi SW 3.5 mph - N/A   Clear
5:53 AM 48.0 °F - 28.9 °F 48% 29.96 in 10.0 mi Calm Calm - N/A   Clear
6:53 AM 44.1 °F 41.5 °F 28.9 °F 55% 29.97 in 10.0 mi ESE 4.6 mph - N/A   Clear
7:53 AM 48.0 °F - 30.0 °F 50% 29.98 in 10.0 mi SSE 4.6 mph - N/A   Clear
8:53 AM 55.0 °F - 34.0 °F 45% 29.95 in 10.0 mi Calm Calm - N/A   Scattered Clouds
9:53 AM 55.9 °F - 37.0 °F 49% 29.97 in 10.0 mi SW 3.5 mph - N/A   Partly Cloudy
10:53 AM 59.0 °F - 37.9 °F 46% 29.96 in 10.0 mi North 5.8 mph - N/A   Clear
12:53 PM 72.0 °F - 37.9 °F 29% 29.88 in 10.0 mi Calm Calm - N/A   Clear
1:26 PM 78.8 °F - 35.6 °F 21% 29.99 in 9.0 mi South 20.7 mph 32.2 mph N/A   Clear
1:53 PM 78.1 °F - 35.1 °F 21% 29.82 in 10.0 mi South 17.3 mph 26.5 mph N/A   Clear
2:21 PM 77.0 °F - 33.8 °F 21% 29.96 in 2.5 mi South 23.0 mph 36.8 mph N/A   Haze
2:36 PM 80.6 °F - 33.8 °F 18% 29.95 in 10.0 mi South 20.7 mph 35.7 mph N/A   Clear
2:53 PM 79.0 °F - 33.1 °F 19% 29.80 in 4.0 mi South 24.2 mph 39.1 mph N/A   Haze
3:53 PM 78.1 °F - 33.1 °F 19% 29.80 in 7.0 mi SSE 27.6 mph 34.5 mph N/A   Partly Cloudy
4:53 PM 77.0 °F - 33.1 °F 20% 29.78 in 9.0 mi South 20.7 mph 33.4 mph N/A   Clear
5:53 PM 75.9 °F - 33.1 °F 21% 29.76 in 10.0 mi South 18.4 mph 27.6 mph N/A   Clear
7:53 PM 71.1 °F - 30.0 °F 22% 29.75 in 10.0 mi South 12.7 mph 21.9 mph N/A   Clear
8:53 PM 64.9 °F - 32.0 °F 29% 29.75 in 10.0 mi SE 13.8 mph 19.6 mph N/A   Clear
9:53 PM 64.9 °F - 37.0 °F 36% 29.78 in 10.0 mi SSW 18.4 mph - N/A   Clear
10:00 PM 64.4 °F - 35.6 °F 34% 29.90 in 10.0 mi SSW 15.0 mph - N/A   Clear
10:53 PM 64.0 °F - 37.0 °F 37% 29.75 in 10.0 mi SSE 13.8 mph - N/A   Clear
11:53 PM 64.9 °F - 37.0 °F 36% 29.75 in 10.0 mi SSE 11.5 mph - N/A   Overcast